Total_Precipitation_Accumulation
0.11 0.11 0.20 0.23 0.17 0.14 0.14 0.17 0.18 0.16 0.14 0.11 0.10 0.08 0.06 0.05 0.04 0.05 0.05 0.04 0.06 0.08 0.10 0.12 0.13 0.14 0.16 0.18 0.19 0.20 0.20 0.23 0.33 0.42 0.48 0.53 0.61 0.71 0.87 1.01 1.02 0.73 0.57
0.02 0.06 0.16 0.21 0.19 0.16 0.14 0.15 0.17 0.16 0.14 0.12 0.11 0.09 0.07 0.06 0.06 0.06 0.05 0.06 0.07 0.09 0.10 0.11 0.12 0.12 0.15 0.15 0.16 0.16 0.19 0.29 0.48 0.69 0.81 0.76 0.86 0.89 0.87 0.86 0.95 0.66 0.55
0.02 0.03 0.10 0.21 0.21 0.16 0.14 0.14 0.15 0.15 0.13 0.12 0.10 0.09 0.08 0.07 0.07 0.07 0.07 0.07 0.08 0.09 0.10 0.11 0.12 0.11 0.12 0.14 0.14 0.16 0.22 0.39 0.61 0.96 1.25 0.95 0.68 0.88 0.83 0.83 0.78 0.47 0.40
0.04 0.02 0.04 0.13 0.20 0.19 0.16 0.16 0.15 0.14 0.12 0.11 0.10 0.09 0.08 0.08 0.07 0.08 0.09 0.09 0.10 0.11 0.10 0.12 0.11 0.10 0.12 0.13 0.16 0.21 0.32 0.50 0.78 1.10 1.40 0.86 0.42 0.55 0.61 0.55 0.53 0.38 0.34
0.07 0.04 0.07 0.12 0.16 0.18 0.17 0.17 0.15 0.14 0.12 0.10 0.09 0.08 0.08 0.08 0.11 0.11 0.11 0.11 0.12 0.12 0.13 0.13 0.11 0.11 0.09 0.11 0.15 0.22 0.37 0.51 0.77 1.00 0.93 0.90 0.85 0.54 0.43 0.41 0.43 0.40 0.33
0.10 0.08 0.10 0.14 0.16 0.17 0.17 0.17 0.16 0.13 0.12 0.10 0.09 0.09 0.09 0.11 0.13 0.12 0.12 0.13 0.12 0.14 0.17 0.17 0.13 0.11 0.11 0.12 0.17 0.24 0.33 0.50 0.68 0.62 0.52 0.66 0.75 0.53 0.45 0.47 0.42 0.38 0.31
0.26 0.19 0.18 0.21 0.20 0.18 0.17 0.17 0.18 0.16 0.14 0.12 0.10 0.11 0.12 0.13 0.15 0.16 0.16 0.17 0.15 0.16 0.19 0.20 0.17 0.14 0.15 0.17 0.21 0.24 0.36 0.57 0.64 0.55 0.52 0.64 0.66 0.49 0.64 0.79 0.66 0.50 0.36
0.59 0.49 0.37 0.36 0.30 0.25 0.22 0.21 0.21 0.20 0.17 0.16 0.15 0.15 0.16 0.17 0.18 0.21 0.21 0.22 0.23 0.23 0.24 0.23 0.20 0.21 0.22 0.25 0.27 0.31 0.44 0.50 0.48 0.58 0.61 0.62 0.47 0.45 0.73 0.94 0.86 0.75 0.59
0.87 0.79 0.56 0.41 0.37 0.32 0.32 0.30 0.26 0.24 0.23 0.22 0.21 0.19 0.19 0.19 0.19 0.21 0.25 0.25 0.26 0.28 0.28 0.27 0.26 0.28 0.29 0.29 0.30 0.36 0.49 0.55 0.53 0.68 0.67 0.63 0.44 0.51 0.71 0.84 0.83 0.82 0.72
1.13 0.94 0.66 0.49 0.45 0.37 0.33 0.32 0.30 0.26 0.25 0.24 0.24 0.25 0.25 0.24 0.25 0.28 0.31 0.33 0.34 0.33 0.32 0.34 0.37 0.38 0.39 0.35 0.34 0.41 0.51 0.50 0.47 0.65 0.84 0.68 0.54 0.71 0.88 0.87 0.91 0.95 0.86
1.47 0.98 0.60 0.55 0.47 0.45 0.40 0.40 0.47 0.42 0.41 0.41 0.44 0.43 0.50 0.61 0.63 0.68 0.57 0.56 0.56 0.60 0.61 0.63 0.64 0.66 0.63 0.48 0.49 0.63 0.61 0.50 0.73 0.95 1.09 0.76 0.67 0.87 1.05 1.07 1.05 0.99 0.96
1.44 1.29 0.81 0.65 0.57 0.56 0.55 0.58 0.84 0.87 0.90 0.96 1.03 0.98 1.06 1.05 0.90 0.73 0.74 0.89 0.92 1.07 1.18 1.30 1.40 1.22 0.99 0.83 1.00 1.31 0.82 0.70 0.91 1.03 1.07 0.90 0.93 1.19 1.32 1.29 1.15 0.97 0.93
1.39 1.28 1.17 0.92 0.79 0.80 0.91 0.89 1.02 1.15 1.27 1.36 1.30 1.33 1.46 1.27 1.06 0.94 1.05 1.28 1.35 1.48 1.60 1.89 2.02 1.50 1.47 1.66 1.70 1.65 1.29 1.23 1.15 1.38 1.38 1.38 1.43 1.65 1.66 1.58 1.45 1.23 1.07
1.51 1.41 1.55 1.39 1.23 1.22 1.21 1.27 1.12 1.08 1.16 1.29 1.35 1.36 1.51 1.43 1.32 1.32 1.34 1.39 1.61 1.77 2.01 2.00 2.13 2.13 2.18 2.09 2.04 2.00 1.88 1.71 1.56 1.81 2.13 2.10 1.99 1.98 2.07 1.90 1.65 1.56 1.43
1.87 1.81 1.89 1.83 1.89 1.85 1.69 1.56 1.25 1.17 1.11 1.13 1.21 1.23 1.46 1.68 1.65 1.72 1.51 1.46 1.33 1.63 2.00 2.22 2.27 2.45 2.57 2.53 2.20 1.97 1.93 1.80 1.61 1.68 1.99 2.24 2.28 2.15 2.20 2.19 1.92 1.79 1.74
2.43 2.41 2.35 2.26 2.30 2.23 1.94 1.71 1.51 1.29 1.23 1.17 1.20 1.33 1.74 1.91 1.81 1.85 1.78 1.67 1.44 1.59 1.92 2.27 2.35 2.59 2.57 2.59 2.11 1.88 1.81 1.83 1.64 1.53 1.64 2.01 2.06 1.95 1.96 2.13 2.18 2.11 2.01
3.01 3.01 3.08 2.99 2.72 2.64 2.34 1.93 1.62 1.36 1.19 1.23 1.37 1.54 1.80 1.95 2.02 2.17 2.07 1.73 1.58 1.75 1.93 1.95 2.08 2.55 2.38 2.34 2.16 2.14 2.08 1.89 1.69 1.58 1.53 1.62 1.64 1.80 1.85 1.89 2.09 2.21 2.27
3.53 3.73 3.84 3.55 3.38 3.24 2.79 2.38 2.07 1.87 1.67 1.66 1.64 1.58 1.51 1.69 1.84 1.99 1.72 1.40 1.55 1.82 1.95 1.87 1.88 2.24 2.28 2.29 2.28 2.19 2.10 1.89 1.65 1.55 1.52 1.41 1.40 1.29 1.49 1.71 1.92 2.08 2.34
3.77 4.24 4.51 4.54 4.09 3.63 2.98 2.51 2.13 2.07 1.95 1.81 1.63 1.41 1.24 1.15 1.18 1.28 1.12 1.06 1.28 1.53 1.53 1.35 1.49 1.76 1.86 1.95 1.91 1.71 1.53 1.34 1.21 1.19 1.16 1.09 1.20 1.24 1.29 1.37 1.66 1.83 2.15
3.88 4.36 4.63 4.70 4.16 3.43 2.94 2.71 2.39 2.09 1.92 1.73 1.46 1.19 0.95 0.88 0.83 0.90 0.89 0.84 0.93 0.98 1.00 1.14 1.30 1.45 1.35 1.42 1.36 1.17 1.14 1.00 0.91 0.89 0.78 0.77 0.87 0.87 0.93 1.12 1.37 1.28 1.64
4.29 4.75 4.80 4.40 3.55 2.97 2.49 2.24 2.01 1.76 1.59 1.37 1.13 0.95 0.81 0.78 0.71 0.71 0.68 0.68 0.74 0.72 0.73 0.88 1.00 1.01 0.85 1.02 1.12 0.95 0.78 0.68 0.65 0.63 0.58 0.57 0.59 0.65 0.80 1.01 1.16 1.14 1.10
3.95 4.16 4.08 3.55 2.77 2.25 1.93 1.77 1.56 1.37 1.12 1.01 0.85 0.76 0.69 0.65 0.61 0.59 0.57 0.54 0.53 0.57 0.59 0.65 0.75 0.76 0.68 0.80 0.91 0.87 0.68 0.60 0.52 0.38 0.41 0.42 0.43 0.56 0.64 0.78 0.99 1.17 1.16
3.41 3.07 2.70 2.39 1.98 1.79 1.68 1.48 1.28 1.20 1.02 0.84 0.62 0.51 0.48 0.44 0.41 0.40 0.37 0.37 0.39 0.42 0.45 0.52 0.60 0.63 0.59 0.56 0.67 0.77 0.63 0.51 0.45 0.39 0.37 0.39 0.46 0.51 0.56 0.71 0.83 1.03 1.20
2.57 2.14 1.89 1.76 1.62 1.47 1.36 1.26 1.04 0.85 0.76 0.62 0.53 0.45 0.40 0.34 0.32 0.30 0.26 0.26 0.26 0.28 0.36 0.37 0.46 0.56 0.57 0.46 0.48 0.56 0.56 0.54 0.48 0.44 0.40 0.37 0.42 0.45 0.52 0.59 0.74 0.93 1.06
1.45 1.51 1.55 1.55 1.52 1.40 1.28 1.17 1.06 0.83 0.72 0.66 0.64 0.57 0.49 0.40 0.33 0.30 0.29 0.26 0.26 0.24 0.27 0.30 0.38 0.47 0.54 0.48 0.45 0.50 0.59 0.58 0.50 0.47 0.42 0.42 0.46 0.39 0.48 0.62 0.73 0.82 0.91
0.85 0.97 1.09 1.11 1.20 1.27 1.23 1.07 0.98 0.84 0.74 0.68 0.63 0.51 0.44 0.37 0.33 0.31 0.31 0.33 0.31 0.30 0.29 0.28 0.30 0.35 0.47 0.55 0.54 0.52 0.57 0.58 0.48 0.44 0.37 0.35 0.42 0.41 0.54 0.72 0.78 0.84 0.90